Location: Ch�teau-Arnoux
(44.0814°N, 6.0027°E)
Time: 06:25:53
(UTC+00:00)

SL-27 R/B - Pass Details

Date: 15 November 2019
Orbit: 420 x 472 km, 74.7° (Epoch: 10 December)

Event Time Altitude Azimuth Distance (km) Brightness Sun altitude
Exits shadow 04:23:20 43° 49° (NE) 603 3.3 -22.8°
Drops below altitude 10° 04:25:47 10° 26° (NNE) 1,513 5.3 -22.4°
Sets 04:27:51 0° 23° (NNE) 2,385 6.3 -22.0°
